Regional Weather Roundup
Issued by NWS

Home | Current Version | Previous Version | Graphics & Text | Print | Product List | Glossary Off
Versions: 1 2 3 4 5 6 7 8 9 10 11 12 13 14 15 16 17 18 19 20 21 22 23 24 25 26 27 28 29 30 31 32 33 34 35 36 37 38 39 40 41 42 43 44 45 46 47 48 49 50

000
ASUS43 KDTX 032110
RWRMI
MICHIGAN HOURLY REGIONAL WEATHER ROUNDUP
NATIONAL WEATHER SERVICE DETROIT/PONTIAC MI
500 PM EDT FRI JUL 03 2015

NOTE: "FAIR" INDICATES FEW OR NO CLOUDS BELOW 12,000 FEET WITH NO
SIGNIFICANT WEATHER AND/OR OBSTRUCTION TO VISIBILITY.

MIZ047>049-052>055-059>063-066>070-074>076-081>083-032200-
SOUTHEAST LOWER MICHIGAN

CITY           SKY/WX    TMP DP  RH WIND       PRES   REMARKS
ADRIAN         PTSUNNY   73  56  54 NE5       29.94F
ALMA           MOSUNNY   74  44  34 CALM      29.95F
ANN ARBOR      CLOUDY    74  55  51 CALM      29.94F
BAD AXE        MOSUNNY   71  47  42 S7        29.96F
CARO           PTSUNNY   72  50  44 CALM      29.95F
DETROIT CITY   PTSUNNY   71  55  56 SE7       29.94F
DETROIT        CLOUDY    73  56  54 S13       29.94F
FLINT          PTSUNNY   76  45  33 SW5       29.95F
GROSSE ILE     CLOUDY    70  54  56 S6        29.94F
HILLSDALE      MOSUNNY   73  52  47 CALM      29.95F
HOWELL         PTSUNNY   73  50  44 CALM      29.95F

CITY           SKY/WX    TMP DP  RH WIND       PRES   REMARKS
JACKSON        MOSUNNY   73  53  49 VRB5      29.95F
LAMBERTVILLE   PTSUNNY   73  53  49 NE6       29.94F
LANSING        MOSUNNY   75  50  41 CALM      29.95F
LAPEER         FAIR      73  48  41 CALM      29.95F
MASON          MOSUNNY   71  54  54 SE3       29.95F
MONROE         CLOUDY    71  55  57 E6        29.94F
MT. CLEMENS    PTSUNNY   72  57  59 VRB3      29.93F
PONTIAC        CLOUDY    72  48  42 NW6       29.94F
PORT HOPE        N/A     65  51  60 SE12      29.95F
PORT HURON     PTSUNNY   72  57  60 SW5       29.95F
TRI CITIES     PTSUNNY   75  44  33 CALM      29.96F
MIDLAND        FAIR      75  43  32 CALM      29.95S
TROY           PTSUNNY   75  52  44 CALM      29.95F
SAGINAW HB     PTSUNNY   73  43  33 SE3       29.95F
$$
MIZ043>046-050>051-056>058-064>065-071>073-077>080-032200-
SOUTHWEST LOWER MICHIGAN

CITY           SKY/WX    TMP DP  RH WIND       PRES   REMARKS
BATTLE CREEK   MOSUNNY   76  52  43 N5        29.94F
BENTON HARBOR  SUNNY     71  54  54 N8        29.94F
BIG RAPIDS     MOSUNNY   74  45  34 S8        29.94F
COLDWATER      MOSUNNY   73  52  46 CALM      29.94F
FREMONT        FAIR      75  42  30 CALM      29.94F HAZE
HOLLAND        SUNNY     74  55  51 W8        29.95F
GRAND RAPIDS   PTSUNNY   76  50  40 NE6       29.95F
IONIA          FAIR      73  48  41 CALM      29.94F
KALAMAZOO      MOSUNNY   75  50  41 E3        29.94F
LUDINGTON      SUNNY     71  51  49 W6        29.96F
MARSHALL       MOSUNNY   73  54  51 E5        29.94F
MOUNT PLEASANT MOSUNNY   74  45  35 CALM      29.95F
MUSKEGON       MOSUNNY   72  49  44 W10       29.95F
SOUTH HAVEN    SUNNY     71  54  53 NW8       29.94F
$$
MIZ016>042-032200-
NORTHERN LOWER MICHIGAN

CITY           SKY/WX    TMP DP  RH WIND       PRES   REMARKS
ALPENA         PTSUNNY   77  50  38 SW7       29.92F
BEAVER ISLAND  PTSUNNY   66  49  53 SW9G17    29.91S
BELLAIRE       MOSUNNY   74  50  42 SW6       29.92F
CADILLAC       MOSUNNY   75  53  45 SW9       29.95F
CHARLEVOIX     MOSUNNY   70  52  52 SW9G16    29.95S
FRANKFORT      SUNNY     72  44  36 SW8       29.94F
GAYLORD        MOSUNNY   73  51  46 W13       29.94F
GRAYLING       MOSUNNY   74  53  47 S6        29.94F
HARBOR SPRINGS PTSUNNY   70  53  54 W9        29.92S
HOUGHTON LAKE  SUNNY     73  49  42 SW6       29.95F
MANISTEE       SUNNY     70  45  40 W9        29.96F
OSCODA         SUNNY     73  41  31 S9        29.94F
PELLSTON       PTSUNNY   72  54  53 W8        29.92F
ROGERS CITY    MOSUNNY   72  57  59 NE6       29.91F
TRAVERSE CITY  CLOUDY    75  49  39 SW8       29.91F
$$
MIZ007>008-015-032200-
EASTERN UPPER MICHIGAN

CITY           SKY/WX    TMP DP  RH WIND       PRES   REMARKS
KINROSS        CLOUDY    68  54  60 SW8       29.89F
MACKINAC ISLAN PTSUNNY   66  52  61 W10G17    29.91S
NEWBERRY       CLOUDY    65  56  74 S13       29.88R
S. S. MARIE    CLOUDY    67  53  61 SW10      29.87F
MUNISING         N/A     69  62  78 SW5       29.84F
$$
MIZ004>006-011>014-085-032200-
CENTRAL UPPER MICHIGAN

CITY           SKY/WX    TMP DP  RH WIND       PRES   REMARKS
MANISTIQUE     CLOUDY    61  54  77 S14       29.88S
ESCANABA       CLOUDY    68  59  73 S15G21    29.86S
MENOMINEE      PTSUNNY   73  55  53 SW12      29.89S
SAWYER-GWINN   PTSUNNY   73  55  53 SW12G22   29.89R
$$
MIZ001>003-009>011-084-032200-
WESTERN UPPER MICHIGAN

CITY           SKY/WX    TMP DP  RH WIND       PRES   REMARKS
IRON MOUNTAIN  PTSUNNY   75  57  53 SW5       29.86F
HOUGHTON       MOSUNNY   72  57  59 W16       29.83S
COPPER HARBOR    N/A     71  58  63 N12       29.80F
IRONWOOD       SUNNY     75  61  60 W10       29.84F
$$

ABBREVIATIONS USED IN REMARKS
   TC - TEMPERATURE IN CELSIUS
  WCI - WIND CHILL INDEX
   HX - HEAT INDEX
  VSB - VISIBILITY




USA.gov is the U.S. government's official web portal to all federal, state and local government web resources and services.